{"data":{"norad_id":62289,"epoch":"2026-05-25T00:29:52.368000Z","epoch_age_seconds":69787,"freshness":"FRESH","line1":"1 62289U 24237Y   26145.02074500  .00017989  00000+0  66161-3 0  9997","line2":"2 62289  42.9982 145.4660 0000721 264.1257  95.9512 15.27581499 82862","mean_motion":15.27581499,"eccentricity":7.21e-5,"inclination_deg":42.9982,"raan_deg":145.466,"arg_perigee_deg":264.1257,"mean_anomaly_deg":95.9512,"bstar":0.00066161,"rev_number":8286,"period_min":94.266656210662,"perigee_km":482.54991630416,"apogee_km":483.53929869196,"semimajor_km":6861.1816074981,"source":"CELESTRAK","updated_at":"2026-05-25T13:38:19.646731Z"}}